Time,TemperatureF,DewpointF,PressureIn,WindDirection,WindDirectionDegrees,WindSpeedMPH,WindSpeedGustMPH,Humidity,HourlyPrecipIn,Conditions,Clouds,dailyrainin,SoftwareType,DateUTC
2013-03-16 00:02:00,62.2,43.4,30.03,SSW,192,8.7,11.4,50,0.00,,CLR,0.00,VWS V14.01,2013-03-16 05:02:00,
2013-03-16 00:07:00,62.2,43.9,30.03,South,188,10.5,12.8,51,0.00,,CLR,0.00,VWS V14.01,2013-03-16 05:07:00,
2013-03-16 00:12:00,62.1,44.2,30.03,SSE,161,6.3,12.3,52,0.00,,CLR,0.00,VWS V14.01,2013-03-16 05:12:00,
2013-03-16 00:17:00,62.1,44.8,30.03,SW,224,9.6,15.4,53,0.00,,CLR,0.00,VWS V14.01,2013-03-16 05:17:00,
2013-03-16 00:22:00,61.9,45.1,30.03,SSW,198,8.1,11.4,54,0.00,,CLR,0.00,VWS V14.01,2013-03-16 05:22:00,
2013-03-16 00:27:00,61.9,45.5,30.00,SW,222,5.4,14.1,55,0.00,,CLR,0.00,VWS V14.01,2013-03-16 05:27:00,
2013-03-16 00:32:00,61.9,46.0,30.00,South,181,8.7,10.5,56,0.00,,CLR,0.00,VWS V14.01,2013-03-16 05:32:00,
2013-03-16 00:37:00,61.7,46.3,30.00,SSW,209,10.1,13.2,57,0.00,,CLR,0.00,VWS V14.01,2013-03-16 05:37:00,
2013-03-16 00:42:00,61.9,47.0,30.00,SSW,203,4.5,12.3,58,0.00,,CLR,0.00,VWS V14.01,2013-03-16 05:42:00,
2013-03-16 00:48:00,61.7,46.8,30.00,South,169,10.5,12.3,58,0.00,,CLR,0.00,VWS V14.01,2013-03-16 05:48:00,
2013-03-16 00:53:00,61.7,47.2,30.00,SSW,204,8.1,11.0,59,0.00,,CLR,0.00,VWS V14.01,2013-03-16 05:53:00,
2013-03-16 00:58:00,61.7,47.2,30.00,SSW,212,8.3,11.0,59,0.00,,CLR,0.00,VWS V14.01,2013-03-16 05:58:00,
2013-03-16 01:03:00,61.5,47.1,30.00,South,185,5.4,8.3,59,0.00,,CLR,0.00,VWS V14.01,2013-03-16 06:03:00,
2013-03-16 01:08:00,61.3,46.9,30.00,SSW,192,8.3,10.5,59,0.00,,CLR,0.00,VWS V14.01,2013-03-16 06:08:00,
2013-03-16 01:13:00,61.3,46.9,30.00,South,186,8.7,8.7,59,0.00,,CLR,0.00,VWS V14.01,2013-03-16 06:13:00,
2013-03-16 01:18:00,61.2,47.2,30.00,South,178,6.3,12.3,60,0.00,,CLR,0.00,VWS V14.01,2013-03-16 06:18:00,
2013-03-16 01:23:00,61.0,47.0,30.00,SE,133,4.0,11.4,60,0.00,,CLR,0.00,VWS V14.01,2013-03-16 06:23:00,
2013-03-16 01:29:00,61.0,47.5,30.00,South,187,5.8,11.4,61,0.00,,CLR,0.00,VWS V14.01,2013-03-16 06:29:00,
2013-03-16 01:34:00,60.8,47.3,30.00,South,172,10.5,11.0,61,0.00,,CLR,0.00,VWS V14.01,2013-03-16 06:34:00,
2013-03-16 01:39:00,60.8,47.3,30.00,SSE,166,6.3,11.0,61,0.00,,CLR,0.00,VWS V14.01,2013-03-16 06:39:00,
2013-03-16 01:44:00,60.6,47.5,30.00,SSE,152,7.2,10.1,62,0.00,,CLR,0.00,VWS V14.01,2013-03-16 06:44:00,
2013-03-16 01:49:00,60.6,47.5,30.00,SSW,204,7.6,11.0,62,0.00,,CLR,0.00,VWS V14.01,2013-03-16 06:49:00,
2013-03-16 01:54:00,60.4,47.4,30.00,South,173,5.8,8.1,62,0.00,,CLR,0.00,VWS V14.01,2013-03-16 06:54:00,
2013-03-16 01:59:00,60.4,48.2,30.00,SSE,155,6.3,10.5,64,0.00,,CLR,0.00,VWS V14.01,2013-03-16 06:59:00,
2013-03-16 02:04:00,60.3,48.0,30.00,SSE,164,5.4,11.0,64,0.00,,CLR,0.00,VWS V14.01,2013-03-16 07:04:00,
2013-03-16 02:09:00,60.1,48.3,30.00,South,182,6.3,11.0,65,0.00,,CLR,0.00,VWS V14.01,2013-03-16 07:09:00,
2013-03-16 02:14:00,60.1,48.3,30.00,South,177,5.4,8.1,65,0.00,,CLR,0.00,VWS V14.01,2013-03-16 07:14:00,
2013-03-16 02:20:00,59.9,48.5,30.00,SSE,149,7.6,10.1,66,0.00,,CLR,0.00,VWS V14.01,2013-03-16 07:20:00,
2013-03-16 02:25:00,59.9,48.9,30.00,SE,134,5.8,9.6,67,0.00,,CLR,0.00,VWS V14.01,2013-03-16 07:25:00,
2013-03-16 02:30:00,59.9,49.3,30.00,SE,144,6.3,9.6,68,0.00,,CLR,0.00,VWS V14.01,2013-03-16 07:30:00,
2013-03-16 02:35:00,59.7,49.5,30.00,South,190,4.9,12.3,69,0.00,,CLR,0.00,VWS V14.01,2013-03-16 07:35:00,
2013-03-16 02:40:00,59.7,49.5,30.00,South,189,4.9,8.1,69,0.00,,CLR,0.00,VWS V14.01,2013-03-16 07:40:00,
2013-03-16 02:45:00,59.7,49.5,30.00,SSW,198,8.1,10.1,69,0.00,,CLR,0.00,VWS V14.01,2013-03-16 07:45:00,
2013-03-16 02:50:00,59.5,49.4,30.00,SSW,211,5.4,7.6,69,0.00,,CLR,0.00,VWS V14.01,2013-03-16 07:50:00,
2013-03-16 02:55:00,59.5,49.8,30.00,SSE,164,7.6,10.5,70,0.00,,CLR,0.00,VWS V14.01,2013-03-16 07:55:00,
2013-03-16 03:00:00,59.5,49.8,29.97,South,185,6.3,10.5,70,0.00,,CLR,0.00,VWS V14.01,2013-03-16 08:00:00,
2013-03-16 03:05:00,59.4,50.0,29.97,SSW,198,10.1,10.5,71,0.00,,CLR,0.00,VWS V14.01,2013-03-16 08:05:00,
2013-03-16 03:11:00,59.5,50.5,29.97,South,181,8.3,8.3,72,0.00,,CLR,0.00,VWS V14.01,2013-03-16 08:11:00,
2013-03-16 03:16:00,59.5,50.5,29.97,South,183,10.1,11.0,72,0.00,,CLR,0.00,VWS V14.01,2013-03-16 08:16:00,
2013-03-16 03:21:00,59.5,50.5,29.97,SSW,193,9.2,9.2,72,0.00,,CLR,0.00,VWS V14.01,2013-03-16 08:21:00,
2013-03-16 03:26:00,59.5,50.5,29.97,South,173,13.6,13.6,72,0.00,,CLR,0.00,VWS V14.01,2013-03-16 08:26:00,
2013-03-16 03:32:00,59.5,50.5,29.97,SSW,203,5.8,8.7,72,0.00,,CLR,0.00,VWS V14.01,2013-03-16 08:32:00,
2013-03-16 03:37:00,59.7,51.1,29.97,South,188,11.9,19.2,73,0.00,,CLR,0.00,VWS V14.01,2013-03-16 08:37:00,
2013-03-16 03:42:00,59.7,51.1,29.97,SSW,211,8.1,10.1,73,0.00,,CLR,0.00,VWS V14.01,2013-03-16 08:42:00,
2013-03-16 03:47:00,59.7,50.7,29.97,South,187,5.8,12.8,72,0.00,,CLR,0.00,VWS V14.01,2013-03-16 08:47:00,
2013-03-16 03:52:00,59.7,50.7,29.97,South,189,9.2,10.5,72,0.00,,CLR,0.00,VWS V14.01,2013-03-16 08:52:00,
2013-03-16 03:58:00,59.7,50.7,29.97,South,170,6.7,11.0,72,0.00,,CLR,0.00,VWS V14.01,2013-03-16 08:58:00,
2013-03-16 04:03:00,59.7,50.7,29.97,SSW,199,13.6,13.6,72,0.00,,CLR,0.00,VWS V14.01,2013-03-16 09:03:00,
2013-03-16 04:08:00,59.7,50.7,29.97,South,182,5.8,13.6,72,0.00,,CLR,0.00,VWS V14.01,2013-03-16 09:08:00,
2013-03-16 04:13:00,59.7,50.7,29.97,SSW,198,7.6,13.2,72,0.00,,CLR,0.00,VWS V14.01,2013-03-16 09:13:00,
2013-03-16 04:18:00,59.7,50.3,29.97,South,191,7.6,13.2,71,0.00,,CLR,0.00,VWS V14.01,2013-03-16 09:18:00,
2013-03-16 04:23:00,59.7,50.3,29.97,South,180,12.3,12.3,71,0.00,,CLR,0.00,VWS V14.01,2013-03-16 09:23:00,
2013-03-16 04:28:00,59.7,50.7,29.94,South,176,6.3,15.4,72,0.00,,CLR,0.00,VWS V14.01,2013-03-16 09:28:00,
2013-03-16 04:33:00,59.7,50.7,29.94,SW,229,8.3,11.0,72,0.00,,CLR,0.00,VWS V14.01,2013-03-16 09:33:00,
2013-03-16 04:38:00,59.5,50.5,29.94,SW,226,7.6,11.0,72,0.00,,CLR,0.00,VWS V14.01,2013-03-16 09:38:00,
2013-03-16 04:43:00,59.5,50.5,29.94,SW,227,7.6,10.1,72,0.00,,CLR,0.00,VWS V14.01,2013-03-16 09:43:00,
2013-03-16 04:48:00,59.4,50.3,29.94,South,171,5.4,10.1,72,0.00,,CLR,0.00,VWS V14.01,2013-03-16 09:48:00,
2013-03-16 04:53:00,59.4,50.7,29.94,SW,223,10.1,12.8,73,0.00,,CLR,0.00,VWS V14.01,2013-03-16 09:53:00,
2013-03-16 04:58:00,59.4,50.7,29.94,South,183,7.6,12.8,73,0.00,,CLR,0.00,VWS V14.01,2013-03-16 09:58:00,
2013-03-16 05:03:00,59.2,50.5,29.94,SSE,155,7.6,8.7,73,0.00,,CLR,0.00,VWS V14.01,2013-03-16 10:03:00,
2013-03-16 05:08:00,59.2,50.9,29.94,South,180,8.7,10.1,74,0.00,,CLR,0.00,VWS V14.01,2013-03-16 10:08:00,
2013-03-16 05:14:00,59.2,50.9,29.94,SSW,198,8.1,8.1,74,0.00,,CLR,0.00,VWS V14.01,2013-03-16 10:14:00,
2013-03-16 05:19:00,59.0,50.7,29.94,SSE,160,4.0,8.1,74,0.00,,CLR,0.00,VWS V14.01,2013-03-16 10:19:00,
2013-03-16 05:24:00,58.8,50.9,29.94,South,175,5.8,8.1,75,0.00,,CLR,0.00,VWS V14.01,2013-03-16 10:24:00,
2013-03-16 05:29:00,58.6,50.8,29.94,SSE,155,3.1,8.1,75,0.00,,CLR,0.00,VWS V14.01,2013-03-16 10:29:00,
2013-03-16 05:34:00,58.5,50.6,29.94,SSW,194,4.9,6.3,75,0.00,,CLR,0.00,VWS V14.01,2013-03-16 10:34:00,
2013-03-16 05:39:00,58.5,50.9,29.94,SSW,202,5.8,6.3,76,0.00,,CLR,0.00,VWS V14.01,2013-03-16 10:39:00,
2013-03-16 05:44:00,58.3,50.8,29.94,South,191,4.9,5.8,76,0.00,,CLR,0.00,VWS V14.01,2013-03-16 10:44:00,
2013-03-16 05:49:00,58.1,50.6,29.94,South,178,4.9,5.8,76,0.00,,CLR,0.00,VWS V14.01,2013-03-16 10:49:00,
2013-03-16 05:54:00,57.9,50.4,29.94,South,170,4.0,5.8,76,0.00,,CLR,0.00,VWS V14.01,2013-03-16 10:54:00,
2013-03-16 05:59:00,57.7,50.6,29.94,South,169,2.2,6.3,77,0.00,,CLR,0.00,VWS V14.01,2013-03-16 10:59:00,
2013-03-16 06:04:00,57.7,50.6,29.94,South,182,4.9,6.3,77,0.00,,CLR,0.00,VWS V14.01,2013-03-16 11:04:00,
2013-03-16 06:09:00,57.6,50.8,29.94,South,189,0.0,6.3,78,0.00,,CLR,0.00,VWS V14.01,2013-03-16 11:09:00,
2013-03-16 06:15:00,57.6,50.8,29.94,South,184,4.0,6.3,78,0.00,,CLR,0.00,VWS V14.01,2013-03-16 11:15:00,
2013-03-16 06:20:00,57.4,50.6,29.94,South,191,5.4,6.3,78,0.00,,CLR,0.00,VWS V14.01,2013-03-16 11:20:00,
2013-03-16 06:25:00,57.4,50.9,29.94,SSE,166,3.1,5.8,79,0.00,,CLR,0.00,VWS V14.01,2013-03-16 11:25:00,
2013-03-16 06:30:00,57.2,50.8,29.94,South,178,4.0,5.8,79,0.00,,CLR,0.00,VWS V14.01,2013-03-16 11:30:00,
2013-03-16 06:35:00,57.2,51.1,29.94,SSW,204,5.8,5.8,80,0.00,,CLR,0.00,VWS V14.01,2013-03-16 11:35:00,
2013-03-16 06:40:00,57.2,51.1,29.94,South,182,3.1,3.1,80,0.00,,CLR,0.00,VWS V14.01,2013-03-16 11:40:00,
2013-03-16 06:45:00,57.2,51.4,29.94,SSE,164,5.4,6.3,81,0.00,,CLR,0.00,VWS V14.01,2013-03-16 11:45:00,
2013-03-16 06:50:00,57.2,51.4,29.94,SSW,197,4.0,4.0,81,0.00,,CLR,0.00,VWS V14.01,2013-03-16 11:50:00,
2013-03-16 06:55:00,57.2,51.8,29.94,South,171,2.7,6.3,82,0.00,,CLR,0.00,VWS V14.01,2013-03-16 11:55:00,
2013-03-16 07:00:00,57.2,51.8,29.94,South,177,0.0,0.0,82,0.00,,CLR,0.00,VWS V14.01,2013-03-16 12:00:00,
2013-03-16 07:05:00,57.2,51.8,29.94,South,176,2.7,5.8,82,0.00,,CLR,0.00,VWS V14.01,2013-03-16 12:05:00,
2013-03-16 07:10:00,57.2,51.8,29.94,SSW,203,5.8,5.8,82,0.00,,CLR,0.00,VWS V14.01,2013-03-16 12:10:00,
2013-03-16 07:15:00,57.2,52.1,29.94,South,185,4.0,5.8,83,0.00,,CLR,0.00,VWS V14.01,2013-03-16 12:15:00,
2013-03-16 07:21:00,57.2,52.1,29.94,SSW,201,2.7,3.6,83,0.00,,CLR,0.00,VWS V14.01,2013-03-16 12:21:00,
2013-03-16 07:26:00,57.2,52.1,29.94,SSE,159,2.7,5.4,83,0.00,,CLR,0.00,VWS V14.01,2013-03-16 12:26:00,
2013-03-16 07:31:00,57.2,52.1,29.91,SSW,195,0.0,0.0,83,0.00,,CLR,0.00,VWS V14.01,2013-03-16 12:31:00,
2013-03-16 07:37:00,57.2,52.4,29.91,South,176,0.0,5.4,84,0.00,,CLR,0.00,VWS V14.01,2013-03-16 12:37:00,
2013-03-16 07:42:00,57.0,52.2,29.94,South,170,0.0,0.0,84,0.00,,CLR,0.00,VWS V14.01,2013-03-16 12:42:00,
2013-03-16 07:47:00,57.0,52.2,29.94,South,169,0.0,0.0,84,0.00,,CLR,0.00,VWS V14.01,2013-03-16 12:47:00,
2013-03-16 07:52:00,57.0,52.2,29.94,SSE,166,0.0,0.0,84,0.00,,CLR,0.00,VWS V14.01,2013-03-16 12:52:00,
2013-03-16 07:57:00,57.0,52.2,29.94,SSE,167,0.0,0.0,84,0.00,,CLR,0.00,VWS V14.01,2013-03-16 12:57:00,
2013-03-16 08:03:00,57.2,52.4,29.94,SSE,148,0.0,0.0,84,0.00,,CLR,0.00,VWS V14.01,2013-03-16 13:03:00,
2013-03-16 08:08:00,57.2,52.4,29.94,SSE,147,0.0,0.0,84,0.00,,CLR,0.00,VWS V14.01,2013-03-16 13:08:00,
2013-03-16 08:13:00,57.4,52.6,29.94,SSE,147,0.0,0.0,84,0.00,,CLR,0.00,VWS V14.01,2013-03-16 13:13:00,
2013-03-16 08:18:00,57.6,53.1,29.94,SE,146,0.0,0.0,85,0.00,,CLR,0.00,VWS V14.01,2013-03-16 13:18:00,
2013-03-16 08:23:00,57.9,53.4,29.94,SE,146,0.0,0.0,85,0.00,,CLR,0.00,VWS V14.01,2013-03-16 13:23:00,
2013-03-16 08:28:00,58.3,53.8,29.94,SE,146,0.0,0.0,85,0.00,,CLR,0.00,VWS V14.01,2013-03-16 13:28:00,
2013-03-16 08:33:00,59.0,55.1,29.94,SE,146,0.0,0.0,87,0.00,,CLR,0.00,VWS V14.01,2013-03-16 13:33:00,
2013-03-16 08:38:00,59.5,54.0,29.94,South,178,0.0,0.0,82,0.00,,CLR,0.00,VWS V14.01,2013-03-16 13:38:00,
2013-03-16 08:43:00,59.7,53.5,29.94,SSE,167,0.0,4.0,80,0.00,,CLR,0.00,VWS V14.01,2013-03-16 13:43:00,
2013-03-16 08:49:00,59.9,54.4,29.94,South,178,0.0,4.0,82,0.00,,CLR,0.00,VWS V14.01,2013-03-16 13:49:00,
2013-03-16 08:54:00,60.3,54.8,29.94,SSE,164,5.8,5.8,82,0.00,,CLR,0.00,VWS V14.01,2013-03-16 13:54:00,
2013-03-16 08:59:00,60.6,55.4,29.94,South,187,5.8,10.5,83,0.00,,CLR,0.00,VWS V14.01,2013-03-16 13:59:00,
2013-03-16 09:04:00,61.2,56.0,29.94,SSE,165,8.7,8.7,83,0.00,,CLR,0.00,VWS V14.01,2013-03-16 14:04:00,
2013-03-16 09:09:00,61.5,56.3,29.94,SSW,213,5.4,8.7,83,0.00,,CLR,0.00,VWS V14.01,2013-03-16 14:09:00,
2013-03-16 09:14:00,61.9,56.7,29.94,SSW,204,6.3,8.3,83,0.00,,CLR,0.00,VWS V14.01,2013-03-16 14:14:00,
2013-03-16 09:19:00,62.6,56.7,29.94,SSW,199,6.3,8.7,81,0.00,,CLR,0.00,VWS V14.01,2013-03-16 14:19:00,
2013-03-16 09:24:00,63.0,56.0,29.94,SSW,199,8.1,11.0,78,0.00,,CLR,0.00,VWS V14.01,2013-03-16 14:24:00,
2013-03-16 09:29:00,63.5,54.3,29.94,South,169,8.7,12.8,72,0.00,,CLR,0.00,VWS V14.01,2013-03-16 14:29:00,
2013-03-16 09:34:00,63.9,52.3,29.94,South,181,10.1,11.9,66,0.00,,CLR,0.00,VWS V14.01,2013-03-16 14:34:00,
2013-03-16 09:40:00,64.6,45.0,29.94,South,176,6.3,15.0,49,0.00,,CLR,0.00,VWS V14.01,2013-03-16 14:40:00,
2013-03-16 09:45:00,65.7,43.8,29.94,SSE,168,5.8,13.2,45,0.00,,BKN021,0.00,VWS V14.01,2013-03-16 14:45:00,
2013-03-16 09:50:00,66.6,43.4,29.94,South,182,10.5,14.5,43,0.00,,BKN021,0.00,VWS V14.01,2013-03-16 14:50:00,
2013-03-16 09:55:00,68.2,40.2,29.94,South,172,12.3,13.6,36,0.00,,BKN021,0.00,VWS V14.01,2013-03-16 14:55:00,
2013-03-16 10:00:00,69.8,34.3,29.94,South,185,10.1,11.0,27,0.00,,BKN021,0.00,VWS V14.01,2013-03-16 15:00:00,
2013-03-16 10:05:00,70.9,31.3,29.94,SSW,200,12.8,13.6,23,0.00,,SCT021,0.00,VWS V14.01,2013-03-16 15:05:00,
2013-03-16 10:10:00,70.9,31.3,29.94,SSW,194,11.0,11.0,23,0.00,,SCT021,0.00,VWS V14.01,2013-03-16 15:10:00,
2013-03-16 10:16:00,70.2,32.7,29.94,SSW,199,14.5,17.9,25,0.00,,SCT021,0.00,VWS V14.01,2013-03-16 15:16:00,
2013-03-16 10:21:00,69.4,34.0,29.94,South,190,17.0,17.0,27,0.00,,CLR,0.00,VWS V14.01,2013-03-16 15:21:00,
2013-03-16 10:26:00,68.9,38.6,29.94,West,261,10.5,17.9,33,0.00,,CLR,0.00,VWS V14.01,2013-03-16 15:26:00,
2013-03-16 10:31:00,69.1,38.8,29.94,South,187,12.3,14.1,33,0.00,,CLR,0.00,VWS V14.01,2013-03-16 15:31:00,
2013-03-16 10:36:00,69.8,37.0,29.94,South,180,15.0,15.0,30,0.00,,CLR,0.00,VWS V14.01,2013-03-16 15:36:00,
2013-03-16 10:41:00,70.7,33.2,29.94,SSW,198,6.3,17.0,25,0.00,,CLR,0.00,VWS V14.01,2013-03-16 15:41:00,
2013-03-16 10:47:00,71.8,33.1,29.94,SSW,199,10.1,17.4,24,0.00,,CLR,0.00,VWS V14.01,2013-03-16 15:47:00,
2013-03-16 10:53:00,71.8,30.9,29.94,SSW,211,12.3,17.9,22,0.00,,CLR,0.00,VWS V14.01,2013-03-16 15:53:00,
2013-03-16 10:58:00,72.0,32.2,29.94,SSW,199,10.1,17.9,23,0.00,,CLR,0.00,VWS V14.01,2013-03-16 15:58:00,
2013-03-16 11:03:00,72.5,31.5,29.94,SW,214,12.8,22.8,22,0.00,,CLR,0.00,VWS V14.01,2013-03-16 16:03:00,
2013-03-16 11:08:00,72.7,31.7,29.94,SSW,213,16.3,22.8,22,0.00,,CLR,0.00,VWS V14.01,2013-03-16 16:08:00,
2013-03-16 11:13:00,73.0,32.0,29.94,SSW,194,11.0,15.0,22,0.00,,CLR,0.00,VWS V14.01,2013-03-16 16:13:00,
2013-03-16 11:18:00,73.8,31.4,29.94,SSE,158,12.3,15.0,21,0.00,,CLR,0.00,VWS V14.01,2013-03-16 16:18:00,
2013-03-16 11:23:00,73.6,31.3,29.94,SSW,201,10.5,17.4,21,0.00,,SCT027,0.00,VWS V14.01,2013-03-16 16:23:00,
2013-03-16 11:28:00,73.8,31.4,29.94,SW,217,6.3,17.4,21,0.00,,SCT027,0.00,VWS V14.01,2013-03-16 16:28:00,
2013-03-16 11:34:00,73.9,31.6,29.94,SW,224,11.0,15.4,21,0.00,,SCT027,0.00,VWS V14.01,2013-03-16 16:34:00,
2013-03-16 11:39:00,74.3,31.9,29.94,SW,220,5.8,17.0,21,0.00,,SCT027,0.00,VWS V14.01,2013-03-16 16:39:00,
2013-03-16 11:44:00,75.0,32.5,29.94,South,174,15.4,15.4,21,0.00,,SCT027,0.00,VWS V14.01,2013-03-16 16:44:00,
2013-03-16 11:49:00,75.6,29.1,29.94,SSW,202,12.3,15.4,18,0.00,,SCT027,0.00,VWS V14.01,2013-03-16 16:49:00,
2013-03-16 11:54:00,75.9,29.4,29.94,SSW,198,8.7,15.0,18,0.00,,SCT027,0.00,VWS V14.01,2013-03-16 16:54:00,
2013-03-16 11:59:00,75.9,29.4,29.94,SW,216,8.3,15.0,18,0.00,,SCT027,0.00,VWS V14.01,2013-03-16 16:59:00,
2013-03-16 12:04:00,75.7,29.3,29.94,SW,214,15.4,15.4,18,0.00,,SCT027,0.00,VWS V14.01,2013-03-16 17:04:00,
2013-03-16 12:09:00,76.3,29.7,29.94,SW,216,13.2,15.4,18,0.00,,SCT027,0.00,VWS V14.01,2013-03-16 17:09:00,
2013-03-16 12:15:00,76.5,29.9,29.91,SSW,204,10.1,16.8,18,0.00,,SCT027,0.00,VWS V14.01,2013-03-16 17:15:00,
2013-03-16 12:20:00,76.8,30.1,29.91,North,2,9.2,19.2,18,0.00,,SCT027,0.00,VWS V14.01,2013-03-16 17:20:00,
2013-03-16 12:25:00,77.0,30.3,29.91,SSW,209,8.3,16.8,18,0.00,,SCT034,0.00,VWS V14.01,2013-03-16 17:25:00,
2013-03-16 12:30:00,77.2,30.4,29.91,SW,234,5.8,11.0,18,0.00,,SCT034,0.00,VWS V14.01,2013-03-16 17:30:00,
2013-03-16 12:35:00,77.7,30.9,29.91,South,176,11.9,15.0,18,0.00,,SCT034,0.00,VWS V14.01,2013-03-16 17:35:00,
2013-03-16 12:40:00,78.1,31.2,29.91,SSE,152,8.3,10.5,18,0.00,,SCT034,0.00,VWS V14.01,2013-03-16 17:40:00,
2013-03-16 12:46:00,78.4,31.5,29.91,SSE,166,5.4,17.0,18,0.00,,SCT036,0.00,VWS V14.01,2013-03-16 17:46:00,
2013-03-16 12:51:00,78.6,31.6,29.91,SW,228,10.1,11.0,18,0.00,,SCT036,0.00,VWS V14.01,2013-03-16 17:51:00,
2013-03-16 12:56:00,78.6,31.6,29.91,SSW,208,8.1,13.2,18,0.00,,SCT036,0.00,VWS V14.01,2013-03-16 17:56:00,
2013-03-16 13:01:00,78.8,30.4,29.91,SSW,211,15.4,17.0,17,0.00,,SCT036,0.00,VWS V14.01,2013-03-16 18:01:00,
2013-03-16 13:07:00,79.0,30.5,29.91,SW,221,7.2,17.0,17,0.00,,SCT038,0.00,VWS V14.01,2013-03-16 18:07:00,
2013-03-16 13:12:00,79.2,27.6,29.91,South,182,7.6,16.8,15,0.00,,SCT038,0.00,VWS V14.01,2013-03-16 18:12:00,
2013-03-16 13:17:00,79.3,30.8,29.91,SSE,168,10.5,16.8,17,0.00,,SCT038,0.00,VWS V14.01,2013-03-16 18:17:00,
2013-03-16 13:22:00,79.7,28.0,29.91,SSW,206,11.0,19.2,15,0.00,,CLR,0.00,VWS V14.01,2013-03-16 18:22:00,
2013-03-16 13:27:00,79.5,30.9,29.88,SSW,192,8.1,19.2,17,0.00,,CLR,0.00,VWS V14.01,2013-03-16 18:27:00,
2013-03-16 13:32:00,79.3,27.7,29.88,South,180,7.6,13.2,15,0.00,,CLR,0.00,VWS V14.01,2013-03-16 18:32:00,
2013-03-16 13:37:00,80.1,31.4,29.88,SW,226,5.4,15.4,17,0.00,,CLR,0.00,VWS V14.01,2013-03-16 18:37:00,
2013-03-16 13:43:00,80.6,27.0,29.88,SW,225,8.1,17.0,14,0.00,,CLR,0.00,VWS V14.01,2013-03-16 18:43:00,
2013-03-16 13:48:00,80.2,28.4,29.88,SW,226,8.7,17.0,15,0.00,,CLR,0.00,VWS V14.01,2013-03-16 18:48:00,
2013-03-16 13:53:00,80.2,28.4,29.88,SSE,152,8.7,15.0,15,0.00,,CLR,0.00,VWS V14.01,2013-03-16 18:53:00,
2013-03-16 13:58:00,80.6,27.0,29.88,SSW,193,16.3,17.0,14,0.00,,CLR,0.00,VWS V14.01,2013-03-16 18:58:00,
2013-03-16 14:03:00,81.3,27.6,29.88,SSW,196,8.3,16.8,14,0.00,,CLR,0.00,VWS V14.01,2013-03-16 19:03:00,
2013-03-16 14:08:00,81.7,27.9,29.88,ESE,121,8.3,16.8,14,0.00,,CLR,0.00,VWS V14.01,2013-03-16 19:08:00,
2013-03-16 14:13:00,82.0,28.2,29.85,South,174,4.0,12.3,14,0.00,,CLR,0.00,VWS V14.01,2013-03-16 19:13:00,
2013-03-16 14:18:00,82.4,28.5,29.85,SSW,194,14.1,15.4,14,0.00,,CLR,0.00,VWS V14.01,2013-03-16 19:18:00,
2013-03-16 14:24:00,82.2,28.3,29.85,SSE,153,5.8,11.0,14,0.00,,SCT050,0.00,VWS V14.01,2013-03-16 19:24:00,
2013-03-16 14:29:00,82.6,28.6,29.85,SSW,195,8.1,16.8,14,0.00,,SCT050,0.00,VWS V14.01,2013-03-16 19:29:00,
2013-03-16 14:34:00,82.4,28.5,29.85,SSW,207,7.6,15.4,14,0.00,,SCT050,0.00,VWS V14.01,2013-03-16 19:34:00,
2013-03-16 14:39:00,82.6,28.6,29.85,South,180,8.3,17.4,14,0.00,,SCT050,0.00,VWS V14.01,2013-03-16 19:39:00,
2013-03-16 14:44:00,82.9,28.9,29.85,SSW,193,11.0,15.4,14,0.00,,SCT050,0.00,VWS V14.01,2013-03-16 19:44:00,
2013-03-16 14:49:00,83.1,29.0,29.85,SSW,205,13.2,15.4,14,0.00,,SCT050,0.00,VWS V14.01,2013-03-16 19:49:00,
2013-03-16 14:54:00,83.5,29.3,29.85,SE,141,7.6,15.4,14,0.00,,SCT050,0.00,VWS V14.01,2013-03-16 19:54:00,
2013-03-16 15:00:00,83.3,29.2,29.82,SW,224,10.5,15.4,14,0.00,,SCT050,0.00,VWS V14.01,2013-03-16 20:00:00,
2013-03-16 15:05:00,83.7,29.5,29.82,East,99,6.3,17.4,14,0.00,,SCT050,0.00,VWS V14.01,2013-03-16 20:05:00,
2013-03-16 15:10:00,83.8,29.6,29.82,SSE,147,5.8,8.3,14,0.00,,SCT050,0.00,VWS V14.01,2013-03-16 20:10:00,
2013-03-16 15:15:00,84.4,28.2,29.82,SE,143,7.6,13.2,13,0.00,,SCT050,0.00,VWS V14.01,2013-03-16 20:15:00,
2013-03-16 15:20:00,84.2,28.1,29.82,SSW,196,10.1,12.3,13,0.00,,SCT050,0.00,VWS V14.01,2013-03-16 20:20:00,
2013-03-16 15:25:00,84.0,29.8,29.82,SW,226,5.8,12.8,14,0.00,,SCT050,0.00,VWS V14.01,2013-03-16 20:25:00,
2013-03-16 15:30:00,84.4,28.2,29.82,South,181,12.3,12.3,13,0.00,,SCT050,0.00,VWS V14.01,2013-03-16 20:30:00,
2013-03-16 15:35:00,84.7,28.5,29.82,SSW,198,5.8,16.3,13,0.00,,SCT050,0.00,VWS V14.01,2013-03-16 20:35:00,
2013-03-16 15:40:00,84.4,28.2,29.82,ESE,117,4.0,5.8,13,0.00,,SCT050,0.00,VWS V14.01,2013-03-16 20:40:00,
2013-03-16 15:45:00,84.4,28.2,29.82,SSW,213,8.7,13.2,13,0.00,,CLR,0.00,VWS V14.01,2013-03-16 20:45:00,
2013-03-16 15:50:00,84.4,28.2,29.82,SE,125,12.3,12.3,13,0.00,,CLR,0.00,VWS V14.01,2013-03-16 20:50:00,
2013-03-16 15:56:00,84.2,28.1,29.82,SE,130,10.1,14.5,13,0.00,,CLR,0.00,VWS V14.01,2013-03-16 20:56:00,
2013-03-16 16:01:00,84.4,28.2,29.79,SSW,197,8.7,13.2,13,0.00,,CLR,0.00,VWS V14.01,2013-03-16 21:01:00,
2013-03-16 16:06:00,84.6,28.4,29.79,ESE,119,4.5,13.2,13,0.00,,CLR,0.00,VWS V14.01,2013-03-16 21:06:00,
2013-03-16 16:11:00,84.4,28.2,29.79,SSE,150,12.8,13.2,13,0.00,,CLR,0.00,VWS V14.01,2013-03-16 21:11:00,
2013-03-16 16:16:00,84.2,28.1,29.79,South,180,10.1,14.5,13,0.00,,CLR,0.00,VWS V14.01,2013-03-16 21:16:00,
2013-03-16 16:21:00,84.2,28.1,29.79,SE,139,5.8,10.5,13,0.00,,CLR,0.00,VWS V14.01,2013-03-16 21:21:00,
2013-03-16 16:26:00,83.8,29.6,29.79,SW,231,6.3,15.0,14,0.00,,CLR,0.00,VWS V14.01,2013-03-16 21:26:00,
2013-03-16 16:31:00,83.8,29.6,29.79,SSW,197,10.5,15.4,14,0.00,,CLR,0.00,VWS V14.01,2013-03-16 21:31:00,
2013-03-16 16:36:00,84.2,28.1,29.79,South,179,13.2,18.8,13,0.00,,CLR,0.00,VWS V14.01,2013-03-16 21:36:00,
2013-03-16 16:41:00,84.4,28.2,29.79,SSW,198,12.3,12.3,13,0.00,,CLR,0.00,VWS V14.01,2013-03-16 21:41:00,
2013-03-16 16:46:00,84.4,28.2,29.79,SE,132,10.1,16.3,13,0.00,,CLR,0.00,VWS V14.01,2013-03-16 21:46:00,
2013-03-16 16:52:00,84.4,28.2,29.79,SSE,159,7.6,8.3,13,0.00,,CLR,0.00,VWS V14.01,2013-03-16 21:52:00,
2013-03-16 16:57:00,84.6,28.4,29.79,South,186,5.4,12.8,13,0.00,,CLR,0.00,VWS V14.01,2013-03-16 21:57:00,
2013-03-16 17:02:00,84.4,28.2,29.79,SE,129,10.5,10.5,13,0.00,,CLR,0.00,VWS V14.01,2013-03-16 22:02:00,
2013-03-16 17:07:00,83.8,29.6,29.79,SSW,213,6.3,16.8,14,0.00,,CLR,0.00,VWS V14.01,2013-03-16 22:07:00,
2013-03-16 17:12:00,82.8,28.8,29.79,ESE,117,11.0,16.3,14,0.00,,CLR,0.00,VWS V14.01,2013-03-16 22:12:00,
2013-03-16 17:17:00,82.4,28.5,29.79,ESE,114,13.2,16.3,14,0.00,,CLR,0.00,VWS V14.01,2013-03-16 22:17:00,
2013-03-16 17:22:00,82.0,28.2,29.79,ENE,70,5.8,12.3,14,0.00,,CLR,0.00,VWS V14.01,2013-03-16 22:22:00,
2013-03-16 17:27:00,81.9,28.0,29.79,South,191,11.4,12.8,14,0.00,,CLR,0.00,VWS V14.01,2013-03-16 22:27:00,
2013-03-16 17:32:00,81.9,28.0,29.79,SSE,166,8.7,13.2,14,0.00,,CLR,0.00,VWS V14.01,2013-03-16 22:32:00,
2013-03-16 17:37:00,81.3,27.6,29.79,SSW,204,8.7,16.3,14,0.00,,CLR,0.00,VWS V14.01,2013-03-16 22:37:00,
2013-03-16 17:42:00,80.8,27.2,29.79,ESE,110,13.2,15.4,14,0.00,,CLR,0.00,VWS V14.01,2013-03-16 22:42:00,
2013-03-16 17:48:00,80.4,28.6,29.79,SSW,192,8.1,15.4,15,0.00,,CLR,0.00,VWS V14.01,2013-03-16 22:48:00,
2013-03-16 17:53:00,80.1,28.3,29.79,SSW,192,8.3,19.2,15,0.00,,CLR,0.00,VWS V14.01,2013-03-16 22:53:00,
2013-03-16 17:58:00,80.1,28.3,29.79,SW,224,12.8,19.2,15,0.00,,CLR,0.00,VWS V14.01,2013-03-16 22:58:00,
2013-03-16 18:03:00,79.9,28.1,29.79,SW,231,11.4,17.4,15,0.00,,CLR,0.00,VWS V14.01,2013-03-16 23:03:00,
2013-03-16 18:08:00,79.7,28.0,29.79,South,173,10.1,17.4,15,0.00,,CLR,0.00,VWS V14.01,2013-03-16 23:08:00,
2013-03-16 18:13:00,79.5,27.9,29.79,SSE,164,11.0,12.8,15,0.00,,CLR,0.00,VWS V14.01,2013-03-16 23:13:00,
2013-03-16 18:18:00,79.2,27.6,29.79,SW,221,8.7,23.3,15,0.00,,CLR,0.00,VWS V14.01,2013-03-16 23:18:00,
2013-03-16 18:23:00,79.0,27.4,29.79,SSE,149,4.9,16.8,15,0.00,,SCT048,0.00,VWS V14.01,2013-03-16 23:23:00,
2013-03-16 18:29:00,78.8,27.3,29.79,NE,47,8.3,16.8,15,0.00,,SCT048,0.00,VWS V14.01,2013-03-16 23:29:00,
2013-03-16 18:34:00,78.6,27.1,29.79,SSE,156,8.1,13.2,15,0.00,,SCT048,0.00,VWS V14.01,2013-03-16 23:34:00,
2013-03-16 18:39:00,78.1,26.7,29.79,South,176,12.8,15.0,15,0.00,,SCT048,0.00,VWS V14.01,2013-03-16 23:39:00,
2013-03-16 18:44:00,77.2,26.0,29.79,SSW,201,8.7,12.8,15,0.00,,SCT048,0.00,VWS V14.01,2013-03-16 23:44:00,
2013-03-16 18:49:00,76.6,30.0,29.79,South,179,3.6,12.8,18,0.00,,SCT048,0.00,VWS V14.01,2013-03-16 23:49:00,
2013-03-16 18:54:00,75.9,29.4,29.79,East,101,14.5,14.5,18,0.00,,SCT048,0.00,VWS V14.01,2013-03-16 23:54:00,
2013-03-16 18:59:00,75.6,29.1,29.79,SSW,200,5.8,14.5,18,0.00,,SCT048,0.00,VWS V14.01,2013-03-16 23:59:00,
2013-03-16 19:04:00,75.2,28.8,29.79,South,184,12.3,13.2,18,0.00,,CLR,0.00,VWS V14.01,2013-03-17 00:04:00,
2013-03-16 19:09:00,74.8,28.5,29.79,South,179,6.3,13.2,18,0.00,,CLR,0.00,VWS V14.01,2013-03-17 00:09:00,
2013-03-16 19:14:00,74.3,28.1,29.79,SSW,195,5.8,12.3,18,0.00,,CLR,0.00,VWS V14.01,2013-03-17 00:14:00,
2013-03-16 19:19:00,73.8,27.6,29.79,SSE,149,8.1,16.8,18,0.00,,CLR,0.00,VWS V14.01,2013-03-17 00:19:00,
2013-03-16 19:25:00,73.2,28.5,29.79,South,173,12.8,17.0,19,0.00,,CLR,0.00,VWS V14.01,2013-03-17 00:25:00,
2013-03-16 19:30:00,72.9,30.7,29.79,SE,129,5.8,17.0,21,0.00,,CLR,0.00,VWS V14.01,2013-03-17 00:30:00,
2013-03-16 19:35:00,72.3,31.4,29.79,SE,146,8.3,13.6,22,0.00,,CLR,0.00,VWS V14.01,2013-03-17 00:35:00,
2013-03-16 19:40:00,72.0,31.1,29.79,SSE,166,13.2,13.2,22,0.00,,CLR,0.00,VWS V14.01,2013-03-17 00:40:00,
2013-03-16 19:45:00,71.6,31.9,29.79,ENE,76,4.5,14.5,23,0.00,,CLR,0.00,VWS V14.01,2013-03-17 00:45:00,
2013-03-16 19:50:00,71.4,31.7,29.79,SW,225,8.7,11.0,23,0.00,,CLR,0.00,VWS V14.01,2013-03-17 00:50:00,
2013-03-16 19:55:00,71.1,32.5,29.79,ESE,115,12.3,15.4,24,0.00,,CLR,0.00,VWS V14.01,2013-03-17 00:55:00,
2013-03-16 20:00:00,70.9,33.3,29.82,South,170,12.3,15.4,25,0.00,,CLR,0.00,VWS V14.01,2013-03-17 01:00:00,
2013-03-16 20:05:00,70.5,34.0,29.82,SE,126,5.8,15.4,26,0.00,,CLR,0.00,VWS V14.01,2013-03-17 01:05:00,
2013-03-16 20:11:00,70.2,35.6,29.82,South,174,6.3,8.7,28,0.00,,CLR,0.00,VWS V14.01,2013-03-17 01:11:00,
2013-03-16 20:16:00,69.8,37.8,29.82,South,191,12.8,14.5,31,0.00,,CLR,0.00,VWS V14.01,2013-03-17 01:16:00,
2013-03-16 20:21:00,69.6,38.5,29.82,SSE,168,7.6,8.3,32,0.00,,SCT027,0.00,VWS V14.01,2013-03-17 01:21:00,
2013-03-16 20:26:00,69.4,39.1,29.82,SSE,165,3.6,13.2,33,0.00,,SCT027,0.00,VWS V14.01,2013-03-17 01:26:00,
2013-03-16 20:31:00,69.3,39.0,29.82,East,98,12.3,12.3,33,0.00,,SCT027,0.00,VWS V14.01,2013-03-17 01:31:00,
2013-03-16 20:36:00,68.9,39.4,29.82,South,191,8.7,12.8,34,0.00,,SCT027,0.00,VWS V14.01,2013-03-17 01:36:00,
2013-03-16 20:41:00,68.7,39.2,29.82,South,189,8.1,12.8,34,0.00,,CLR,0.00,VWS V14.01,2013-03-17 01:41:00,
2013-03-16 20:46:00,68.7,40.0,29.82,SSE,165,8.7,12.8,35,0.00,,CLR,0.00,VWS V14.01,2013-03-17 01:46:00,
2013-03-16 20:51:00,68.5,39.8,29.82,SSE,156,9.6,9.6,35,0.00,,CLR,0.00,VWS V14.01,2013-03-17 01:51:00,
2013-03-16 20:56:00,68.5,39.8,29.82,South,191,2.7,10.1,35,0.00,,CLR,0.00,VWS V14.01,2013-03-17 01:56:00,
2013-03-16 21:01:00,68.4,40.4,29.82,ESE,112,5.8,8.7,36,0.00,,SCT024,0.00,VWS V14.01,2013-03-17 02:01:00,
2013-03-16 21:06:00,68.2,40.2,29.82,South,180,10.5,12.8,36,0.00,,SCT024,0.00,VWS V14.01,2013-03-17 02:06:00,
2013-03-16 21:12:00,68.0,40.8,29.82,SSE,164,5.4,9.2,37,0.00,,SCT024,0.00,VWS V14.01,2013-03-17 02:12:00,
2013-03-16 21:17:00,68.0,40.8,29.82,SSW,195,8.1,15.0,37,0.00,,SCT024,0.00,VWS V14.01,2013-03-17 02:17:00,
2013-03-16 21:22:00,67.8,41.3,29.82,South,179,3.6,8.3,38,0.00,,BKN031,0.00,VWS V14.01,2013-03-17 02:22:00,
2013-03-16 21:27:00,67.6,41.2,29.82,South,173,7.6,10.5,38,0.00,,BKN031,0.00,VWS V14.01,2013-03-17 02:27:00,
2013-03-16 21:32:00,67.6,41.2,29.82,SE,141,5.4,8.7,38,0.00,,BKN031,0.00,VWS V14.01,2013-03-17 02:32:00,
2013-03-16 21:37:00,67.3,41.5,29.82,ESE,111,7.6,8.7,39,0.00,,BKN031,0.00,VWS V14.01,2013-03-17 02:37:00,
2013-03-16 21:42:00,67.3,42.8,29.82,ESE,105,5.8,6.3,41,0.00,,BKN031,0.00,VWS V14.01,2013-03-17 02:42:00,
2013-03-16 21:47:00,67.3,43.4,29.82,SSE,158,10.1,11.0,42,0.00,,BKN031,0.00,VWS V14.01,2013-03-17 02:47:00,
2013-03-16 21:52:00,67.3,43.4,29.82,SE,139,5.8,8.3,42,0.00,,BKN031,0.00,VWS V14.01,2013-03-17 02:52:00,
2013-03-16 21:58:00,67.3,44.0,29.82,SE,136,7.2,8.7,43,0.00,,BKN031,0.00,VWS V14.01,2013-03-17 02:58:00,
2013-03-16 22:03:00,67.1,43.9,29.82,SSE,151,3.6,7.6,43,0.00,,BKN024,0.00,VWS V14.01,2013-03-17 03:03:00,
2013-03-16 22:08:00,67.1,43.9,29.82,SE,139,4.0,8.3,43,0.00,,BKN024,0.00,VWS V14.01,2013-03-17 03:08:00,
2013-03-16 22:13:00,67.1,43.9,29.85,SSE,158,10.5,10.5,43,0.00,,BKN024,0.00,VWS V14.01,2013-03-17 03:13:00,
2013-03-16 22:18:00,67.1,43.9,29.85,SSE,152,6.3,10.5,43,0.00,,BKN024,0.00,VWS V14.01,2013-03-17 03:18:00,
2013-03-16 22:23:00,67.1,43.9,29.85,NE,38,7.2,12.3,43,0.00,,SCT024,0.00,VWS V14.01,2013-03-17 03:23:00,
2013-03-16 22:28:00,67.3,44.0,29.85,ENE,72,7.6,15.4,43,0.00,,SCT024,0.00,VWS V14.01,2013-03-17 03:28:00,
2013-03-16 22:34:00,67.3,44.0,29.85,SSE,151,5.8,10.1,43,0.00,,SCT024,0.00,VWS V14.01,2013-03-17 03:34:00,
2013-03-16 22:39:00,67.5,43.6,29.85,SSW,196,11.0,13.2,42,0.00,,SCT024,0.00,VWS V14.01,2013-03-17 03:39:00,
2013-03-16 22:44:00,67.5,43.0,29.85,South,187,11.9,15.0,41,0.00,,SCT027,0.00,VWS V14.01,2013-03-17 03:44:00,
2013-03-16 22:49:00,67.6,43.1,29.85,SSE,154,13.2,17.4,41,0.00,,SCT027,0.00,VWS V14.01,2013-03-17 03:49:00,
2013-03-16 22:54:00,67.6,43.1,29.85,SE,124,8.7,15.0,41,0.00,,SCT027,0.00,VWS V14.01,2013-03-17 03:54:00,
2013-03-16 22:59:00,67.6,43.1,29.85,SSW,213,10.1,15.0,41,0.00,,SCT027,0.00,VWS V14.01,2013-03-17 03:59:00,
2013-03-16 23:00:00,67.6,43.1,29.85,East,88,10.1,15.0,41,0.00,,SCT027,0.00,VWS V14.01,2013-03-17 04:00:00,
2013-03-16 23:01:00,67.6,43.1,29.85,SSE,166,8.3,10.5,41,0.00,,OVC024,0.00,VWS V14.01,2013-03-17 04:01:00,
2013-03-16 23:02:00,67.6,43.1,29.85,SSW,211,8.1,10.5,41,0.00,,OVC024,0.00,VWS V14.01,2013-03-17 04:02:00,
2013-03-16 23:05:00,67.6,43.1,29.85,SSE,160,8.3,12.3,41,0.00,,OVC024,0.00,VWS V14.01,2013-03-17 04:05:00,
2013-03-16 23:10:00,67.5,43.6,29.85,SSE,151,8.3,8.3,42,0.00,,OVC024,0.00,VWS V14.01,2013-03-17 04:10:00,
2013-03-16 23:15:00,67.5,43.6,29.85,SE,140,3.6,12.3,42,0.00,,OVC024,0.00,VWS V14.01,2013-03-17 04:15:00,
2013-03-16 23:21:00,67.5,43.6,29.85,South,180,13.2,13.2,42,0.00,,OVC024,0.00,VWS V14.01,2013-03-17 04:21:00,
2013-03-16 23:26:00,67.5,43.6,29.85,SSE,158,8.3,13.2,42,0.00,,OVC030,0.00,VWS V14.01,2013-03-17 04:26:00,
2013-03-16 23:31:00,67.5,43.6,29.85,SE,142,4.9,6.7,42,0.00,,OVC030,0.00,VWS V14.01,2013-03-17 04:31:00,
2013-03-16 23:36:00,67.5,43.6,29.85,SE,142,8.1,14.5,42,0.00,,OVC030,0.00,VWS V14.01,2013-03-17 04:36:00,
2013-03-16 23:41:00,67.5,43.6,29.85,SSW,206,6.3,10.1,42,0.00,,OVC032,0.00,VWS V14.01,2013-03-17 04:41:00,
2013-03-16 23:46:00,67.3,43.4,29.85,SSW,206,8.1,11.0,42,0.00,,OVC032,0.00,VWS V14.01,2013-03-17 04:46:00,
2013-03-16 23:51:00,67.3,43.4,29.85,SSE,152,5.4,8.3,42,0.00,,OVC032,0.00,VWS V14.01,2013-03-17 04:51:00,
2013-03-16 23:56:00,67.3,44.0,29.85,SSE,151,7.6,10.1,43,0.00,,OVC032,0.00,VWS V14.01,2013-03-17 04:56:00,